Weather History for KJLN - January, 2014

Change the Weather History Date:

Wednesday, January 15, 2014

  Actual Average Record
Temperature  
Mean Temperature 30 °F 35 °F  
Max Temperature 40 °F 45 °F 68 °F (1952)
Min Temperature 19 °F 25 °F -1 °F (1979)
Degree Days  
Heating Degree Days 35 30  
Month to date heating degree days 521 450  
Since 1 July heating degree days 2391 2067  
Cooling Degree Days 0 0  
Month to date cooling degree days 0 0  
Year to date cooling degree days 0 0  
Moisture  
Dew Point 15 °F    
Average Humidity 54    
Maximum Humidity 67    
Minimum Humidity 40    
Precipitation  
Precipitation 0.00 in 0.06 in 1.01 in (1949)
Month to date precipitation 0.57 1.00  
Year to date precipitation 0.57 1.00  
Sea Level Pressure  
Sea Level Pressure 30.18 in    
Wind  
Wind Speed 9 mph (West)    
Max Wind Speed 20 mph    
Max Gust Speed 26 mph    
Visibility 10 miles    
Events      
T = Trace of Precipitation, MM = Missing Value Source: NWS Daily Summary

Daily Weather History Graph

Daily Weather History Graph

Search for Another Location

Airport or City:

Trip Planner

Search our weather history database for the weather conditions in past years. The results will help you decide how hot, cold, wet, or windy it might be!

Date:

Astronomy

Jan. 15, 2014 Rise Set
Actual Time 7:30 AM CST 5:24 PM CST
Civil Twilight 7:02 AM CST 5:52 PM CST
Nautical Twilight 6:30 AM CST 6:24 PM CST
Astronomical Twilight 5:59 AM CST 6:56 PM CST
Moon 5:21 PM CST (1/15) 6:48 AM CST (1/15)
Length of Visible Light 10h 50m
Length of Day
9h 53m
Full, 100% of the Moon is Illuminated
Jan 15
Full
Jan 15
Full
Jan 23
Last Quarter
Jan 30
New
Feb 6
First Quarter

Hourly Weather History & Observations

Time (CST) Temp. Windchill Dew Point Humidity Pressure Visibility Wind Dir Wind Speed Gust Speed Precip Events Conditions
12:53 AM 27.0 °F 17.3 °F 15.1 °F 61% 30.25 in 10.0 mi NW 10.4 mph - N/A   Clear
1:53 AM 24.1 °F 16.0 °F 12.9 °F 62% 30.26 in 10.0 mi NNW 6.9 mph - N/A   Clear
2:53 AM 24.1 °F 17.0 °F 12.0 °F 60% 30.27 in 10.0 mi NW 5.8 mph - N/A   Clear
3:53 AM 23.0 °F 15.8 °F 12.0 °F 63% 30.26 in 10.0 mi West 5.8 mph - N/A   Clear
4:53 AM 24.1 °F 13.1 °F 12.0 °F 60% 30.26 in 10.0 mi NW 11.5 mph - N/A   Clear
5:53 AM 25.0 °F 14.8 °F 10.0 °F 53% 30.28 in 10.0 mi NW 10.4 mph - N/A   Clear
6:53 AM 19.9 °F 12.1 °F 10.0 °F 65% 30.28 in 10.0 mi NNW 5.8 mph - N/A   Clear
7:53 AM 21.0 °F 12.4 °F 10.9 °F 65% 30.29 in 10.0 mi NNW 6.9 mph - N/A   Clear
8:53 AM 26.1 °F 17.6 °F 10.0 °F 51% 30.30 in 10.0 mi NW 8.1 mph - N/A   Clear
9:53 AM 28.0 °F 18.6 °F 10.0 °F 47% 30.32 in 10.0 mi NW 10.4 mph - N/A   Clear
10:53 AM 28.9 °F 19.8 °F 10.0 °F 45% 30.31 in 10.0 mi NW 10.4 mph - N/A   Clear
11:53 AM 32.0 °F 25.6 °F 12.0 °F 44% 30.28 in 10.0 mi West 6.9 mph - N/A   Clear
12:53 PM 34.0 °F 28.0 °F 12.9 °F 42% 30.23 in 10.0 mi Variable 6.9 mph - N/A   Clear
1:53 PM 36.0 °F 28.0 °F 15.1 °F 43% 30.20 in 10.0 mi NW 11.5 mph - N/A   Clear
2:53 PM 37.0 °F 29.8 °F 16.0 °F 42% 30.18 in 10.0 mi WNW 10.4 mph - N/A   Clear
3:53 PM 37.0 °F 31.6 °F 18.0 °F 46% 30.16 in 10.0 mi SW 6.9 mph - N/A   Mostly Cloudy
4:53 PM 36.0 °F 28.5 °F 18.0 °F 48% 30.13 in 10.0 mi South 10.4 mph - N/A   Partly Cloudy
5:53 PM 33.1 °F 26.9 °F 19.0 °F 56% 30.10 in 10.0 mi South 6.9 mph - N/A   Scattered Clouds
6:53 PM 35.1 °F 27.9 °F 19.0 °F 52% 30.09 in 10.0 mi South 9.2 mph - N/A   Overcast
7:53 PM 36.0 °F 27.5 °F 19.0 °F 50% 30.05 in 10.0 mi South 12.7 mph - N/A   Overcast
8:53 PM 37.0 °F 28.9 °F 19.0 °F 48% 30.01 in 10.0 mi South 12.7 mph - N/A   Overcast
9:53 PM 37.9 °F 29.6 °F 19.9 °F 48% 29.98 in 10.0 mi South 13.8 mph - N/A   Mostly Cloudy
10:53 PM 39.0 °F 30.6 °F 19.9 °F 46% 29.94 in 10.0 mi South 15.0 mph - N/A   Overcast
11:53 PM 39.9 °F - 21.0 °F 47% 29.91 in 10.0 mi North - - N/A   Overcast